This demonstration page uses our WeatherBlox Daily Observations layout. Learn more.

40.92945, -100.16068

Hourly Observations for March 19, 2017

Temp ( °F °C ) Dew Point ( °F °C ) Humidity (%) Winds ( mph kmh ) Pressure ( in mb ) Visibility ( mi km ) Precip ( " mm )
12:15 am 00:15 Clear 54 12.1 35 1.5 49 49 SSE 15 24 30.03 1017 10 16.0934 0 0
12:35 am 00:35 Clear 53 11.9 35 1.7 50 50 SSE 15 24 30.03 1017 10 16.0934 0 0
12:55 am 00:55 Clear 53 11.5 35 1.8 52 52 SSE 13 20 30.03 1017 10 16.0934 0 0
1:15 am 01:15 Clear 53 11.5 36 2 52 52 S 10 17 30.03 1017 10 16.0934 0 0
1:35 am 01:35 Clear 53 11.5 36 2.2 53 53 S 13 20 30.03 1017 10 16.0934 0 0
1:55 am 01:55 Clear 53 11.4 37 2.5 55 55 S 13 20 30.03 1017 10 16.0934 0 0
2:15 am 02:15 Clear 53 11.5 37 2.6 55 55 SSE 13 20 30.03 1017 10 16.0934 0 0
2:35 am 02:35 Clear 52 11.2 37 2.8 57 57 S 13 20 30.03 1017 10 16.0934 0 0
2:55 am 02:55 Clear 52 11.3 37 3 57 57 S 12 19 30.03 1017 10 16.0934 0 0
3:15 am 03:15 Clear 52 11.1 37 2.8 57 57 S 12 19 30.03 1017 10 16.0934 0 0
3:35 am 03:35 Clear 52 11.1 37 2.6 56 56 SSE 12 19 30 1016 10 16.0934 0 0
3:55 am 03:55 Clear 51 10.8 37 2.5 57 57 SE 7 11 30 1016 10 16.0934 0 0
4:15 am 04:15 Clear 50 9.8 36 2.1 59 59 E 6 9 30.03 1017 10 16.0934 0 0
4:35 am 04:35 Clear 51 10.3 36 2.1 57 57 S 7 11 30 1016 10 16.0934 0 0
4:55 am 04:55 Clear 49 9.7 35 1.9 59 59 SSE 7 11 29.97 1015 10 16.0934 0 0
5:15 am 05:15 Clear 45 7.2 34 1 65 65 ENE 3 6 30 1016 10 16.0934 0 0
5:35 am 05:35 Clear 46 7.5 35 1.4 66 66 SSE 8 13 30 1016 10 16.0934 0 0
5:55 am 05:55 Clear 47 8.1 35 1.5 63 63 SE 6 9 30 1016 10 16.0934 0 0
6:15 am 06:15 Clear 46 7.5 34 1.1 64 64 SE 6 9 30 1016 10 16.0934 0 0
6:35 am 06:35 Clear 44 6.6 33 0.8 67 67 SE 5 7 30 1016 10 16.0934 0 0
6:55 am 06:55 Clear 44 6.7 33 0.6 65 65 SE 5 7 30 1016 10 16.0934 0 0
7:15 am 07:15 Clear 38 3.5 31 -0.3 76 76 Calm 30.03 1017 10 16.0934 0 0
7:35 am 07:35 Clear 37 3 31 -0.3 79 79 ENE 3 6 30.06 1018 10 16.0934 0 0
7:55 am 07:55 Sunny 37 2.6 31 -0.3 81 81 SE 3 6 30.06 1018 10 16.0934 0 0
8:15 am 08:15 Sunny 39 3.8 32 0 77 77 ESE 3 6 30.03 1017 10 16.0934 0 0
8:35 am 08:35 Sunny 38 3.6 32 0.2 79 79 Calm 30.03 1017 10 16.0934 0 0
8:55 am 08:55 Sunny 44 6.5 35 1.4 70 70 ENE 3 6 30 1016 10 16.0934 0 0
9:15 am 09:15 Sunny 47 8.5 35 1.7 63 63 Calm 30 1016 10 16.0934 0 0
9:35 am 09:35 Sunny 50 10.1 36 2.2 58 58 SSE 3 6 29.97 1015 10 16.0934 0 0
9:55 am 09:55 Sunny 52 11 37 2.6 56 56 S 5 7 29.97 1015 10 16.0934 0 0
10:15 am 10:15 Sunny 55 12.5 38 3.3 54 54 S 3 6 29.97 1015 10 16.0934 0 0
10:35 am 10:35 Sunny 57 14.1 40 4.5 53 53 Calm 29.94 1014 10 16.0934 0 0
10:55 am 10:55 Sunny 60 15.3 42 5.8 53 53 SW 3 6 29.94 1014 10 16.0934 0 0
11:15 am 11:15 Sunny 62 16.5 44 6.5 52 52 WSW 3 6 29.91 1013 10 16.0934 0 0
11:35 am 11:35 Sunny 63 17.3 44 6.9 51 51 NNW 3 6 29.88 1012 10 16.0934 0 0
11:55 am 11:55 Sunny 64 17.9 45 7.1 49 49 W 5 7 29.88 1012 10 16.0934 0 0
12:15 pm 12:15 Sunny 66 19 45 7.2 46 46 W 8 13 29.88 1012 10 16.0934 0 0
12:35 pm 12:35 Sunny 68 20.2 46 7.5 44 44 WSW 6 9 29.85 1011 10 16.0934 0 0
12:55 pm 12:55 Sunny 71 21.4 45 7 39 39 WNW 5 7 29.85 1011 10 16.0934 0 0
1:15 pm 13:15 Sunny 73 22.7 44 6.9 36 36 NW 7 11 29.85 1011 10 16.0934 0 0
1:35 pm 13:35 Sunny 75 24 44 6.4 32 32 NW 7 11 29.83 1010 10 16.0934 0 0
1:55 pm 13:55 Sunny 78 25.4 42 5.6 28 28 W 6 9 29.8 1009 10 16.0934 0 0
2:15 pm 14:15 Sunny 80 26.5 42 5.5 26 26 WNW 5 7 29.77 1008 10 16.0934 0 0
2:35 pm 14:35 Sunny 81 27.4 40 4.4 23 23 WSW 6 9 29.74 1007 10 16.0934 0 0
2:55 pm 14:55 Sunny 83 28.6 38 3.6 20 20 WNW 5 7 29.74 1007 10 16.0934 0 0
3:15 pm 15:15 Sunny 86 29.8 36 2.1 17 17 WNW 8 13 29.68 1005 10 16.0934 0 0
3:35 pm 15:35 Sunny 87 30.3 33 0.7 15 15 Calm 29.68 1005 10 16.0934 0 0
3:55 pm 15:55 Sunny 87 30.8 31 -0.8 13 13 WNW 9 15 29.68 1005 10 16.0934 0 0
4:15 pm 16:15 Sunny 88 31.2 29 -1.5 12 12 WSW 6 9 29.68 1005 10 16.0934 0 0
4:35 pm 16:35 Sunny 89 31.8 28 -2.5 11 11 W 9 15 29.65 1004 10 16.0934 0 0
4:55 pm 16:55 Sunny 89 31.6 29 -1.5 12 12 W 8 13 29.65 1004 10 16.0934 0 0
5:15 pm 17:15 Sunny 89 31.5 28 -2.4 11 11 W 15 24 29.65 1004 10 16.0934 0 0
5:35 pm 17:35 Sunny 86 30 27 -2.9 12 12 WNW 15 24 29.65 1004 10 16.0934 0 0
5:55 pm 17:55 Sunny 85 29.7 27 -2.8 12 12 WNW 16 26 29.68 1005 10 16.0934 0 0
6:15 pm 18:15 Sunny 85 29.5 27 -3 12 12 WNW 17 28 29.68 1005 10 16.0934 0 0
6:35 pm 18:35 Sunny 83 28.5 27 -2.7 13 13 NW 15 24 29.71 1006 10 16.0934 0 0
6:55 pm 18:55 Sunny 81 27.1 27 -3 14 14 WNW 13 20 29.71 1006 10 16.0934 0 0
7:15 pm 19:15 Sunny 76 24.6 29 -1.8 17 17 WNW 12 19 29.77 1008 10 16.0934 0 0
7:35 pm 19:35 Sunny 74 23.5 28 -2.3 18 18 WNW 12 19 29.77 1008 10 16.0934 0 0
7:55 pm 19:55 Clear 71 21.6 26 -3.1 19 19 WNW 9 15 29.8 1009 10 16.0934 0 0
8:15 pm 20:15 Clear 65 18.4 27 -2.7 24 24 WNW 9 15 29.83 1010 10 16.0934 0 0
8:35 pm 20:35 Clear 62 16.6 26 -3.1 26 26 WNW 10 17 29.85 1011 10 16.0934 0 0
8:55 pm 20:55 Clear 61 16 26 -3.5 26 26 WNW 10 17 29.85 1011 10 16.0934 0 0
9:15 pm 21:15 Clear 58 14.7 26 -3.2 29 29 WNW 7 11 29.88 1012 10 16.0934 0 0
9:35 pm 21:35 Clear 56 13.6 27 -3 32 32 NW 6 9 29.88 1012 7 11.26538 0 0
9:55 pm 21:55 Clear 56 13.4 26 -3.1 32 32 W 6 9 29.88 1012 7 11.26538 0 0
10:15 pm 22:15 Clear 55 13 26 -3.2 33 33 W 8 13 29.88 1012 10 16.0934 0 0
10:35 pm 22:35 Clear 55 12.8 27 -2.6 34 34 W 8 13 29.88 1012 10 16.0934 0 0
10:55 pm 22:55 Clear 52 10.9 28 -2.4 40 40 NNW 6 9 29.94 1014 10 16.0934 0 0
11:15 pm 23:15 Clear 50 10 27 -3 40 40 N 8 13 29.94 1014 10 16.0934 0 0
11:35 pm 23:35 Clear 59 15 40 4.2 49 49 N 15 24 29.91 1013 10 16.0934 0 0
11:55 pm 23:55 Clear 58 14.3 39 4.1 51 51 NNE 15 24 29.94 1014 10 16.0934 0 0

Powered by AerisWeather